Location: ??????????
(44.2167°N, 135.5333°E)
Time: 13:43:59
(UTC+00:00)

Resurs 1-4 Rocket - Pass Details

Date: 15 June 2025
Orbit: 798 x 812 km, 98.8° (Epoch: 16 July)

Event Time Altitude Azimuth Distance (km) Brightness Sun altitude
Rises 18:32:46 0° 2° (N) 3,318 6.0 -6.6°
Reaches altitude 10° 18:35:29 10° 350° (N) 2,385 5.0 -6.2°
Maximum altitude 18:39:37 24° 297° (WNW) 1,603 3.5 -5.7°
Drops below altitude 10° 18:43:46 10° 245° (WSW) 2,378 3.9 -5.1°
Enters shadow 18:44:56 - 238° (WSW) 2,764 4.2 -4.9°
